This demonstration page uses our WeatherBlox Daily Observations layout. Learn more.

Left ArrowRight Arrow

38.20091, -84.87328

Hourly Observations for August 31, 2017

Temp ( °F °C ) Dew Point ( °F °C ) Humidity (%) Winds ( mph kmh ) Pressure ( in mb ) Visibility ( mi km ) Precip ( " mm )
12:53 am 00:53 Clear 66 18.9 62 16.7 87 87 Calm 30.03 1017 10 16 0.00 0.00
1:53 am 01:53 Clear 64 17.8 61 16.1 90 90 Calm 30.02 1017 9 14 0.00 0.00
2:53 am 02:53 Clear 65 18.3 62 16.7 90 90 Calm 30.01 1016 10 16 0.00 0.00
3:53 am 03:53 Clear 64 17.8 61 16.1 90 90 Calm 30.01 1016 10 16 0.00 0.00
4:53 am 04:53 Mostly Clear 64 17.8 61 16.1 90 90 Calm 30.01 1016 9 14 0.00 0.00
5:53 am 05:53 Clear 65 18.3 62 16.7 90 90 Calm 30.01 1016 8 13 0.00 0.00
6:53 am 06:53 Clear 65 18.3 61 16.1 87 87 Calm 30.02 1017 7 11 0.00 0.00
7:53 am 07:53 Sunny 66 18.9 62 16.7 87 87 Calm 30.04 1017 7 11 0.00 0.00
8:53 am 08:53 Sunny 71 21.7 64 17.8 79 79 Calm 30.06 1018 8 13 0.00 0.00
9:53 am 09:53 Sunny 73 22.8 65 18.3 76 76 Calm 30.05 1018 10 16 0.00 0.00
10:53 am 10:53 Sunny 75 23.9 65 18.3 71 71 E 5 7 30.04 1017 10 16 0.00 0.00
11:53 am 11:53 Sunny 79 26.1 64 17.8 60 60 E 6 9 30.04 1017 10 16 0.00 0.00
12:53 pm 12:53 Sunny 81 27.2 63 17.2 54 54 undefined N/A 30.02 1017 10 16 0.00 0.00
1:53 pm 13:53 Sunny 84 28.9 61 16.1 46 46 VRB 3 6 30.00 1016 10 16 0.00 0.00
2:53 pm 14:53 Mostly Sunny 84 28.9 60 15.6 44 44 ESE 8 13 29.98 1015 10 16 0.00 0.00
3:53 pm 15:53 Mostly Sunny 86 30 61 16.1 43 43 VRB 3 6 29.95 1014 10 16 0.00 0.00
4:53 pm 16:53 Mostly Cloudy 84 28.9 61 16.1 46 46 ESE 7 11 29.94 1014 10 16 0.00 0.00
5:53 pm 17:53 Cloudy 83 28.3 60 15.6 46 46 E 6 9 29.94 1014 10 16 0.00 0.00
6:53 pm 18:53 Cloudy 82 27.8 61 16.1 49 49 NE 6 9 29.94 1014 10 16 0.00 0.00
7:53 pm 19:53 Cloudy 80 26.7 62 16.7 54 54 ENE 8 13 29.93 1014 10 16 0.00 0.00
8:53 pm 20:53 Cloudy 78 25.6 62 16.7 58 58 E 7 11 29.93 1014 10 16 0.00 0.00
9:53 pm 21:53 Clear 76 24.4 62 16.7 62 62 ENE 10 17 29.92 1013 10 16 0.00 0.00
10:53 pm 22:53 Mostly Clear 75 23.9 62 16.7 64 64 ENE 8 13 29.94 1014 10 16 0.00 0.00
11:53 pm 23:53 Clear 74 23.3 61 16.1 64 64 ENE 14 22 29.94 1014 10 16 0.00 0.00

Powered by AerisWeather